Weather Roundup
Issued by NWS

Home | Current Version | Previous Version | Graphics & Text | Print | Product List | Glossary Off
Versions: 1 2 3 4 5 6 7 8 9 10 11 12 13 14 15 16 17 18 19 20 21 22 23 24 25 26 27 28 29 30 31 32 33 34 35 36 37 38 39 40 41 42 43 44 45 46 47 48 49 50

849
NZUS93 KARX 210310
HRRWXR

CURRENT HOURLY OBSERVATIONS ACROSS
MUCH OF THE UPPER MISSISSIPPI VALLEY
NATIONAL WEATHER SERVICE LA CROSSE WI
1000 PM CDT SUN AUG 20 2017


...SOUTHEAST MINNESOTA...


CITY           SKY/WX    TMP DP  RH WIND       PRES   REMARKS
ROCHESTER      PTCLDY    70  68  93 SE6       30.03S
ROCHESTER/MAYO FAIR      75  68  79 E3        30.02F
WINONA         CLOUDY    73  70  88 SE8       29.98F THUNDER
AUSTIN         CLEAR     72  66  83 CALM      30.03R
ALBERT LEA     CLEAR     73  72  94 CALM      30.02R
DODGE CENTER   CLEAR     68  66  94 N3        30.04R
PRESTON        PTCLDY    70  65  85 SE5       30.06R
OWATONNA       PTCLDY    72  70  94 CALM      30.03R
FARIBAULT      PTCLDY    72  70  94 CALM      30.03R
$$

...ELSEWHERE IN MINNESOTA...


CITY           SKY/WX    TMP DP  RH WIND       PRES   REMARKS
MINNEAPOLIS    PTCLDY    74  64  71 N6        30.00R
INTNL FALLS    CLEAR     50  48  93 CALM      29.99R
DULUTH         PTCLDY    60  55  83 W6        30.01S
RED WING       MOCLDY    75  66  73 NE5       29.99R
REDWOOD FALLS  CLEAR     67  63  87 CALM      30.02R
MANKATO        MOCLDY    71  67  87 CALM      30.02R
WORTHINGTON    PTCLDY    67  65  93 NE6       30.05R
FAIRMONT       MOCLDY    72  69  90 N6        30.03R
$$

...SOUTHWEST WISCONSIN...


CITY           SKY/WX    TMP DP  RH WIND       PRES   REMARKS
LA CROSSE      PTCLDY    79  67  66 S10       30.01R
PRAIRIE DU CHI CLEAR     68  63  85 CALM      30.03R
BOSCOBEL       CLEAR     67  65  93 CALM      30.04R
LONE ROCK      CLEAR     66  66 100 NW3       30.04R
PLATTEVILLE    CLEAR     66  66 100 NE3       30.04R
FORT MC COY    PTCLDY    66  65  94 CALM      30.05R
CAMP DOUGLAS   CLEAR     70  67  90 S6        30.03R
MAUSTON-NEW LI CLEAR     68  66  94 CALM      30.03R
VIROQUA        FAIR      69  66  89 CALM      30.07R
WIS DELLS      CLEAR     69  66  90 S3        30.04S
$$

...ELSEWHERE IN WISCONSIN...


CITY           SKY/WX    TMP DP  RH WIND       PRES   REMARKS
MILWAUKEE      PTCLDY    72  65  78 SE5       30.03S
MADISON        CLEAR     70  68  93 CALM      30.03S
GREEN BAY      CLEAR     71  69  93 SW6       30.01R
EAU CLAIRE     CLOUDY    74  68  81 S3        30.00R
BLACK RVR FLS  FAIR      73  70  91 S5        30.00S
MEDFORD        CLEAR     68  64  89 SW3       30.03R
WAUSAU         CLOUDY    72  66  81 SW6       30.00R
WIS RAPIDS     CLOUDY    72  67  84 W3        30.04R
MARSHFIELD     CLOUDY    72  65  78 S8        30.02R
RICE LAKE      CLOUDY    71  67  87 CALM      30.03R FOG
$$

...NORTHEAST IOWA...


CITY           SKY/WX    TMP DP  RH WIND       PRES   REMARKS
WATERLOO       CLEAR     68  65  90 CALM      30.00R
DUBUQUE        CLEAR     67  65  93 NE5       30.03R
DECORAH        PTCLDY    70  66  88 SE3       30.04R
MASON CITY     CLEAR     68  65  90 CALM      30.03R
CHARLES CITY   CLEAR     70  70 100 CALM      30.02R
OELWEIN        CLEAR     68  68 100 SE5       30.03S
$$

...ELSEWHERE IN IOWA...


CITY           SKY/WX    TMP DP  RH WIND       PRES   REMARKS
DES MOINES     MOCLDY    73  66  78 S5        30.02R
IOWA CITY      CLEAR     74  69  85 CALM      30.02R
FORT DODGE     CLEAR     72  66  83 E6        30.02R
MARSHALLTOWN   MOCLDY    71  68  90 S5        30.01R
CEDAR RAPIDS   CLEAR     70  68  93 NE6       30.01R
$$

...NORTHERN ILLINOIS...


CITY           SKY/WX    TMP DP  RH WIND       PRES   REMARKS
CHICAGO-OHARE  CLOUDY    80  70  71 CALM      30.03S
CHICAGO-MIDWAY CLOUDY    82  70  66 SE6       30.03S
MOLINE         CLEAR     72  68  87 SE3       30.00R
ROCKFORD       CLOUDY    76  68  76 CALM      30.03R
PEORIA         PTCLDY    77  75  93 SW6       30.00S
$$

NOTE: "FAIR" INDICATES FEW OR NO CLOUDS BELOW 12,000 FEET WITH NO
SIGNIFICANT WEATHER AND/OR OBSTRUCTIONS TO VISIBILITY. WIND
SPEEDS ARE IN MILES-PER-HOUR.




USA.gov is the U.S. government's official web portal to all federal, state and local government web resources and services.